User: anonymous   Login
Location: Unspecified
(0.0000°N, 0.0000°E)
Time: 11:58:42
(UTC+00:00)
Language:

NIGERIASAT 2 - Orbit

View from above orbital plane
View from above orbital plane
View from above satellite
View from above satellite

Ground track
Ground track

The orbit data is extracted from the following two-line orbital elements,

1 37789U 11044B   18294.18973552 -.00000017  00000-0  56268-5 0  9999
2 37789  97.9852 355.7177 0009637 295.6391  64.3813 14.62076910382768
Epoch (UTC): 21 October 2018 04:33:13
Eccentricity: 0.0009637
inclination: 97.9852°
perigee height: 679 km
apogee height: 693 km
right ascension of ascending node: 355.7177°
argument of perigee: 295.6391°
revolutions per day: 14.62076910
mean anomaly at epoch: 64.3813°
orbit number at epoch: 38276

The dashed part of the orbit path shows where the satellite is in the earth's shadow,  

DLR